This is the latest recevied weather packets stored in our database for station/object DC1MAK-13. If no packets are shown the sender has not sent any weather packets the latest 10 day(s).
| Time | Temp. | Humidity | Pressure | Rain* | Wind** | Luminosity | Snow |
|---|---|---|---|---|---|---|---|
| 1777384919 | 21.11° C | 32% | 985.8 hPa | - | - | - | - |
| 1777384307 | 21.67° C | 31% | 985.9 hPa | - | - | - | - |
| 1777383399 | 21.11° C | 31% | 986.2 hPa | - | - | - | - |
| 1777383092 | 21.11° C | 31% | 986.2 hPa | - | - | - | - |
| 1777382789 | 20.56° C | 31% | 986.2 hPa | - | - | - | - |
| 1777382485 | 20.56° C | 31% | 986.3 hPa | - | - | - | - |
| 1777381879 | 20.56° C | 33% | 986.3 hPa | - | - | - | - |
| 1777381579 | 20° C | 33% | 986.4 hPa | - | - | - | - |
| 1777381271 | 20° C | 32% | 986.3 hPa | - | - | - | - |
| 1777380664 | 20.56° C | 33% | 986.3 hPa | - | - | - | - |
| 1777379753 | 19.44° C | 33% | 986.5 hPa | - | - | - | - |
| 1777379450 | 19.44° C | 32% | 986.5 hPa | - | - | - | - |
| 1777378842 | 19.44° C | 34% | 986.5 hPa | - | - | - | - |
| 1777378239 | 19.44° C | 32% | 986.6 hPa | - | - | - | - |
| 1777377931 | 19.44° C | 33% | 986.6 hPa | - | - | - | - |
| 1777377628 | 18.89° C | 33% | 986.6 hPa | - | - | - | - |
| 1777377324 | 18.89° C | 33% | 986.6 hPa | - | - | - | - |
| 1777376719 | 18.89° C | 34% | 986.8 hPa | - | - | - | - |
| 1777376110 | 18.89° C | 34% | 986.8 hPa | - | - | - | - |
| 1777374592 | 18.33° C | 32% | 986.9 hPa | - | - | - | - |
| 1777373379 | 18.33° C | 34% | 986.9 hPa | - | - | - | - |
| 1777372466 | 17.78° C | 37% | 987 hPa | - | - | - | - |
| 1777372163 | 17.78° C | 35% | 987 hPa | - | - | - | - |
| 1777371559 | 17.22° C | 37% | 987 hPa | - | - | - | - |
| 1777371252 | 17.22° C | 36% | 987.1 hPa | - | - | - | - |
* Rain since midnight (hover to see other rain measurements)
** Current wind speed in m/s (hover to see current wind gust speed)